TimeEDT,TemperatureF,Dew PointF,Humidity,Sea Level PressureIn,VisibilityMPH,Wind Direction,Wind SpeedMPH,Gust SpeedMPH,PrecipitationIn,Events,Conditions,WindDirDegrees,DateUTC
12:15 AM,44.6,37.4,76,30.28,10.0,Calm,Calm,-,N/A,,Clear,0,2013-04-21 04:15:00
12:35 AM,46.4,39.2,76,30.28,10.0,Calm,Calm,-,N/A,,Clear,0,2013-04-21 04:35:00
12:55 AM,42.8,39.2,87,30.29,10.0,Calm,Calm,-,N/A,,Clear,0,2013-04-21 04:55:00
1:15 AM,44.6,42.8,93,30.29,10.0,Calm,Calm,-,N/A,,Clear,0,2013-04-21 05:15:00
1:35 AM,42.8,42.8,100,30.29,10.0,Calm,Calm,-,N/A,,Clear,0,2013-04-21 05:35:00
1:55 AM,42.8,42.8,100,30.29,10.0,Calm,Calm,-,N/A,,Clear,0,2013-04-21 05:55:00
2:15 AM,42.8,42.8,100,30.29,10.0,Calm,Calm,-,N/A,,Clear,0,2013-04-21 06:15:00
2:35 AM,42.8,42.8,100,30.29,10.0,Calm,Calm,-,N/A,,Clear,0,2013-04-21 06:35:00
5:15 AM,39.2,39.2,100,30.30,10.0,Calm,Calm,-,N/A,,Clear,0,2013-04-21 09:15:00
5:35 AM,39.2,39.2,100,30.31,10.0,ENE,3.5,-,N/A,,Clear,70,2013-04-21 09:35:00
5:55 AM,41.0,41.0,100,30.32,10.0,Calm,Calm,-,N/A,,Clear,0,2013-04-21 09:55:00
6:15 AM,39.2,39.2,100,30.32,10.0,ENE,3.5,-,N/A,,Clear,60,2013-04-21 10:15:00
6:35 AM,41.0,41.0,100,30.33,10.0,ENE,3.5,-,N/A,,Clear,70,2013-04-21 10:35:00
6:55 AM,41.0,41.0,100,30.34,10.0,NE,3.5,-,N/A,,Clear,50,2013-04-21 10:55:00
7:15 AM,41.0,41.0,100,30.36,10.0,Calm,Calm,-,N/A,,Clear,0,2013-04-21 11:15:00
7:35 AM,42.8,42.8,100,30.37,10.0,Calm,Calm,-,N/A,,Clear,0,2013-04-21 11:35:00
7:55 AM,44.6,44.6,100,30.37,10.0,Calm,Calm,-,N/A,,Clear,0,2013-04-21 11:55:00
8:15 AM,48.2,44.6,87,30.38,10.0,ENE,3.5,-,N/A,,Clear,60,2013-04-21 12:15:00
8:35 AM,50.0,42.8,76,30.38,10.0,NNE,6.9,-,N/A,,Clear,30,2013-04-21 12:35:00
8:55 AM,51.8,42.8,71,30.38,10.0,NNE,6.9,-,N/A,,Clear,30,2013-04-21 12:55:00
9:15 AM,53.6,42.8,67,30.38,10.0,NNE,6.9,-,N/A,,Clear,30,2013-04-21 13:15:00
9:35 AM,55.4,41.0,58,30.38,10.0,NE,8.1,-,N/A,,Clear,50,2013-04-21 13:35:00
9:55 AM,59.0,39.2,48,30.38,10.0,ENE,13.8,17.3,N/A,,Clear,70,2013-04-21 13:55:00
10:15 AM,60.8,35.6,39,30.38,10.0,ENE,11.5,18.4,N/A,,Clear,60,2013-04-21 14:15:00
10:35 AM,60.8,35.6,39,30.39,10.0,ENE,15.0,-,N/A,,Clear,60,2013-04-21 14:35:00
10:55 AM,62.6,32.0,32,30.39,10.0,ENE,16.1,26.5,N/A,,Clear,70,2013-04-21 14:55:00
11:15 AM,62.6,32.0,32,30.39,10.0,ENE,13.8,23.0,N/A,,Clear,60,2013-04-21 15:15:00
11:35 AM,62.6,32.0,32,30.38,10.0,East,17.3,23.0,N/A,,Clear,90,2013-04-21 15:35:00
11:55 AM,64.4,32.0,30,30.38,10.0,ENE,16.1,26.5,N/A,,Clear,70,2013-04-21 15:55:00
12:15 PM,64.4,32.0,30,30.37,10.0,ENE,13.8,26.5,N/A,,Clear,70,2013-04-21 16:15:00
12:35 PM,64.4,32.0,30,30.37,10.0,East,18.4,25.3,N/A,,Clear,80,2013-04-21 16:35:00
12:55 PM,64.4,32.0,30,30.37,10.0,ENE,17.3,25.3,N/A,,Clear,60,2013-04-21 16:55:00
1:15 PM,64.4,32.0,30,30.37,10.0,East,18.4,25.3,N/A,,Clear,100,2013-04-21 17:15:00
1:35 PM,66.2,33.8,30,30.37,10.0,ENE,16.1,23.0,N/A,,Clear,70,2013-04-21 17:35:00
1:55 PM,68.0,32.0,26,30.36,10.0,East,12.7,26.5,N/A,,Clear,80,2013-04-21 17:55:00
2:15 PM,68.0,32.0,26,30.36,10.0,NE,15.0,20.7,N/A,,Clear,50,2013-04-21 18:15:00
2:35 PM,68.0,33.8,28,30.36,10.0,ENE,16.1,23.0,N/A,,Clear,60,2013-04-21 18:35:00
2:55 PM,68.0,33.8,28,30.35,10.0,East,13.8,19.6,N/A,,Clear,90,2013-04-21 18:55:00
3:15 PM,68.0,32.0,26,30.34,10.0,NE,12.7,20.7,N/A,,Clear,40,2013-04-21 19:15:00
3:35 PM,68.0,32.0,26,30.33,10.0,ENE,13.8,25.3,N/A,,Clear,60,2013-04-21 19:35:00
3:55 PM,68.0,33.8,28,30.33,10.0,East,16.1,20.7,N/A,,Clear,80,2013-04-21 19:55:00
4:15 PM,68.0,33.8,28,30.32,10.0,ENE,15.0,23.0,N/A,,Clear,60,2013-04-21 20:15:00
4:35 PM,68.0,32.0,26,30.32,10.0,East,11.5,-,N/A,,Clear,90,2013-04-21 20:35:00
4:55 PM,68.0,33.8,28,30.31,10.0,East,12.7,19.6,N/A,,Clear,90,2013-04-21 20:55:00
5:15 PM,68.0,32.0,26,30.31,10.0,East,13.8,18.4,N/A,,Clear,80,2013-04-21 21:15:00
5:35 PM,68.0,33.8,28,30.31,10.0,East,16.1,19.6,N/A,,Clear,80,2013-04-21 21:35:00
5:55 PM,68.0,33.8,28,30.31,10.0,NE,13.8,19.6,N/A,,Clear,50,2013-04-21 21:55:00
6:15 PM,66.2,33.8,30,30.32,10.0,NE,11.5,19.6,N/A,,Clear,50,2013-04-21 22:15:00
6:35 PM,66.2,33.8,30,30.33,10.0,ENE,11.5,19.6,N/A,,Clear,60,2013-04-21 22:35:00
6:55 PM,64.4,33.8,32,30.33,10.0,ENE,10.4,17.3,N/A,,Clear,60,2013-04-21 22:55:00
7:15 PM,64.4,33.8,32,30.34,10.0,ENE,9.2,-,N/A,,Clear,70,2013-04-21 23:15:00
7:35 PM,62.6,33.8,34,30.34,10.0,ENE,6.9,-,N/A,,Clear,70,2013-04-21 23:35:00
7:55 PM,60.8,35.6,39,30.35,10.0,ENE,6.9,-,N/A,,Clear,70,2013-04-21 23:55:00
8:15 PM,60.8,35.6,39,30.36,10.0,ENE,4.6,-,N/A,,Clear,70,2013-04-22 00:15:00
8:35 PM,59.0,37.4,45,30.36,10.0,ENE,4.6,-,N/A,,Clear,60,2013-04-22 00:35:00
8:55 PM,57.2,37.4,48,30.36,10.0,ENE,4.6,-,N/A,,Scattered Clouds,60,2013-04-22 00:55:00
9:15 PM,55.4,37.4,51,30.36,10.0,ENE,4.6,-,N/A,,Scattered Clouds,70,2013-04-22 01:15:00
9:35 PM,55.4,37.4,51,30.37,10.0,ENE,4.6,-,N/A,,Clear,60,2013-04-22 01:35:00
9:55 PM,55.4,39.2,54,30.37,10.0,ENE,6.9,-,N/A,,Clear,60,2013-04-22 01:55:00
10:15 PM,53.6,39.2,58,30.37,10.0,ENE,5.8,-,N/A,,Clear,60,2013-04-22 02:15:00
10:35 PM,53.6,39.2,58,30.37,10.0,ENE,5.8,-,N/A,,Clear,60,2013-04-22 02:35:00
10:55 PM,53.6,39.2,58,30.36,10.0,ENE,5.8,-,N/A,,Clear,60,2013-04-22 02:55:00
11:15 PM,53.6,39.2,58,30.36,10.0,East,6.9,-,N/A,,Clear,80,2013-04-22 03:15:00
11:35 PM,51.8,41.0,67,30.35,10.0,NE,6.9,-,N/A,,Clear,50,2013-04-22 03:35:00
11:55 PM,51.8,41.0,67,30.35,10.0,ENE,6.9,-,N/A,,Clear,70,2013-04-22 03:55:00